Simultaneous Nadir Overpasses (SNOs) Predictions

Prediction of SNOs between TERRA and METOP-C Satellite Orbit:

Table of predicted SNOs for the next 14.0 days since TLE Epoch: 11/6/2021
Index Date (TERRA) Time (TERRA) Lat,Lon (TERRA) SZA (TERRA ) Date (METOP-C) Time (METOP-C) Lat,Lon (METOP-C) SZA (METOP-C ) Distance(km) Time Diff (sec)
1 11/08/2021 08:51:39 81.22, 90.86 100.65 11/08/2021 08:50:44 81.22, 91.05 100.65 3.20 55
2 11/08/2021 09:41:05 -81.24,-101.22 79.30 11/08/2021 09:41:25 -81.23,-101.34 79.31 2.41 20
3 11/11/2021 04:25:51 81.22, 157.30 101.43 11/11/2021 04:25:08 81.21, 157.23 101.40 1.30 43
4 11/11/2021 05:15:18 -81.22, -35.12 78.57 11/11/2021 05:15:49 -81.22, -35.18 78.56 1.10 31
5 11/14/2021 00:00:03 81.22,-136.33 102.16 11/13/2021 23:59:31 81.22,-136.23 102.16 1.82 32
6 11/14/2021 00:49:29 -81.24, 31.64 77.79 11/14/2021 00:50:11 -81.23, 31.72 77.76 1.47 42
7 11/16/2021 19:34:14 81.21, -70.04 102.83 11/16/2021 19:33:54 81.21, -70.10 102.82 1.14 20
8 11/16/2021 20:23:40 -81.23, 97.95 77.11 11/16/2021 20:24:34 -81.22, 97.81 77.11 2.32 54
9 11/19/2021 15:08:25 81.21, -3.47 103.50 11/19/2021 15:08:17 81.21, -3.63 103.47 2.81 8



Historial Predications of SNOs between TERRA and METOP-C
